323P/SOHO (1999)

Japanese version
Home page
Updated on March 19, 2021

---------------------------------------------------------------------

* Profile

Designation 323P/1999 X3

* Orbital Elements

Epoch 1999 Dec. 8.0 TT = JDT 2451520.5
T 1999 Dec. 12.87923 TT                                 MPCW
q   0.0521168            (2000.0)            P               Q
n   0.23172330     Peri.  352.71358     +0.73295942     +0.67756510
a   2.6251629      Node   324.38769     -0.61876711     +0.62700415
e   0.9801472      Incl.    5.97661     -0.28266191     +0.38441037
P   4.25
From 47 observations 1999 Dec. 12-2012 Aug. 20.

* Magnitudes Graph

        m1 = 24.0 + 5 log d + 13.0 log r

---------------------------------------------------------------------

The orbital elements are published on M.P.E.C. 2015-K01.
The magnitudes graphs are made with Comet for Windows.

---------------------------------------------------------------------

Copyright(C) Seiichi Yoshida (comet@aerith.net). All rights reserved.